Date String (YYYY-MM-DD hh:mm:ss) UTC,Instrument flags,Ambient pressure (hPa),Sample flow (lpm),Bypass flow (lpm),Sample temperature (°C),Ambient temperature (°C),ASC tube jacket temperature (°C),LED temperature (°C),Box temperature (°C),Sample RH (%),Span deviation,Mass concentration (μg/m³),Mass concentration (μg/m³),Mass concentration (μg/m³)
DateTimeUTC,F1_M11,P_M11,Q1_M11,Q2_M11,T1_M11,T2_M11,T3_M11,T4_M11,T5_M11,U1_M11,ZSPAN_M11,X0_M11,X2_M11,X1_M11
2022-11-12 19:00:00,,0826.5,4.99,0.00,23.6,22.5,00.0,32.4,25.5,09.8,-000.3,0015.87,0009.10,0008.33
2022-11-12 19:01:00,,0826.5,5.01,0.00,23.6,22.5,00.0,32.4,25.5,09.8,0000.4,0015.47,0009.03,0008.32
2022-11-12 19:02:00,,0826.5,4.99,0.00,23.6,22.5,00.0,32.4,25.5,09.8,0000.2,0015.48,0009.03,0008.35
2022-11-12 19:03:00,,0826.5,5.00,0.00,23.6,22.5,00.0,32.4,25.5,09.8,0000.3,0015.63,0009.06,0008.37
2022-11-12 19:04:00,,0826.5,5.00,0.00,23.6,22.5,00.0,32.4,25.5,09.8,0000.3,0015.37,0009.11,0008.40
2022-11-12 19:05:00,,0826.5,5.01,0.00,23.6,22.5,00.0,32.4,25.5,09.8,0000.7,0015.65,0009.18,0008.44
2022-11-12 19:06:00,,0826.4,4.99,0.00,23.7,22.5,00.0,32.4,25.5,09.8,0001.6,0015.41,0009.20,0008.43
2022-11-12 19:07:00,,0826.5,5.01,0.00,23.7,22.5,00.0,32.4,25.5,09.8,0001.8,0015.16,0009.21,0008.44
2022-11-12 19:08:00,,0826.4,5.00,0.00,23.7,22.5,00.0,32.4,25.6,09.8,0001.7,0014.77,0009.22,0008.43
2022-11-12 19:09:00,,0826.4,4.99,0.00,23.7,22.5,00.0,32.4,25.5,09.8,0001.0,0014.58,0009.20,0008.43
2022-11-12 19:10:00,,0826.4,5.00,0.00,23.7,22.5,00.0,32.4,25.6,09.9,0000.6,0014.30,0009.16,0008.43
2022-11-12 19:11:00,,0826.3,5.01,0.00,23.7,22.5,00.0,32.4,25.6,09.7,0000.3,0014.17,0009.14,0008.43
2022-11-12 19:12:00,,0826.3,4.99,0.00,23.7,22.5,00.0,32.4,25.6,09.7,0000.3,0014.88,0009.16,0008.44
2022-11-12 19:13:00,,0826.2,5.01,0.00,23.7,22.5,00.0,32.5,25.6,09.7,0001.0,0015.12,0009.14,0008.42
2022-11-12 19:14:00,,0826.2,5.01,0.00,23.7,22.5,00.0,32.5,25.6,09.7,0001.9,0015.22,0009.09,0008.38
2022-11-12 19:15:00,,0826.2,4.98,0.00,23.7,22.6,00.0,32.5,25.6,09.6,0001.4,0015.43,0009.07,0008.33
2022-11-12 19:16:00,,0826.2,5.01,0.00,23.7,22.6,00.0,32.5,25.6,09.7,0000.9,0015.35,0009.01,0008.26
2022-11-12 19:17:00,,0826.2,5.01,0.00,23.7,22.6,00.0,32.5,25.6,09.7,0000.1,0015.42,0008.95,0008.21
2022-11-12 19:18:00,,0826.2,5.00,0.00,23.7,22.6,00.0,32.5,25.6,09.6,-000.3,0016.17,0008.91,0008.16
2022-11-12 19:19:00,,0826.2,4.99,0.00,23.8,22.6,00.0,32.5,25.6,09.6,0000.1,0016.67,0008.90,0008.10
2022-11-12 19:20:00,,0826.1,4.99,0.00,23.8,22.6,00.0,32.5,25.6,09.5,0000.3,0016.60,0008.84,0008.05
2022-11-12 19:21:00,,0826.2,5.01,0.00,23.8,22.6,00.0,32.5,25.6,09.5,0000.4,0016.41,0008.79,0007.99
2022-11-12 19:22:00,,0826.1,5.00,0.00,23.8,22.6,00.0,32.5,25.7,09.5,0000.1,0016.59,0008.74,0007.94
2022-11-12 19:23:00,,0826.2,5.00,0.00,23.8,22.6,00.0,32.5,25.7,09.5,-000.4,0016.02,0008.64,0007.88
2022-11-12 19:24:00,,0826.1,4.99,0.00,23.8,22.7,00.0,32.5,25.6,09.6,-000.2,0015.68,0008.59,0007.84
2022-11-12 19:25:00,,0826.1,5.00,0.00,23.8,22.7,00.0,32.6,25.7,09.7,-000.6,0015.64,0008.55,0007.83
2022-11-12 19:26:00,,0826.2,5.01,0.00,23.8,22.7,00.0,32.6,25.7,09.6,-000.6,0016.82,0008.51,0007.81
2022-11-12 19:27:00,,0826.2,5.01,0.00,23.8,22.7,00.0,32.6,25.7,09.5,-000.6,0016.69,0008.45,0007.80
2022-11-12 19:28:00,,0826.2,4.99,0.00,23.8,22.7,00.0,32.6,25.7,09.4,-000.4,0016.28,0008.44,0007.80
2022-11-12 19:29:00,,0826.2,4.99,0.00,23.8,22.7,00.0,32.6,25.7,09.4,0000.1,0015.65,0008.46,0007.81
2022-11-12 19:30:00,,0826.2,5.01,0.00,23.9,22.7,00.0,32.6,25.7,09.4,0000.3,0015.45,0008.48,0007.83
2022-11-12 19:31:00,,0826.1,5.01,0.00,23.9,22.7,00.0,32.6,25.7,09.5,0000.7,0016.15,0008.48,0007.84
2022-11-12 19:32:00,,0826.0,4.99,0.00,23.9,22.7,00.0,32.6,25.8,09.5,0000.7,0017.99,0008.50,0007.84
2022-11-12 19:33:00,,0826.0,5.00,0.00,23.9,22.7,00.0,32.6,25.9,09.5,0001.2,0018.23,0008.56,0007.84
2022-11-12 19:34:00,,0826.1,5.00,0.00,23.9,22.7,00.0,32.6,25.8,09.4,0001.5,0018.09,0008.61,0007.87
2022-11-12 19:35:00,,0826.1,5.00,0.00,23.9,22.7,00.0,32.6,25.8,09.4,0001.1,0018.12,0008.62,0007.86
2022-11-12 19:36:00,,0826.0,4.99,0.00,23.9,22.8,00.0,32.7,25.8,09.3,0001.2,0018.38,0008.66,0007.84
2022-11-12 19:37:00,,0826.0,4.99,0.00,23.9,22.8,00.0,32.7,25.8,09.3,0001.1,0017.94,0008.68,0007.84
2022-11-12 19:38:00,,0826.0,5.01,0.00,23.9,22.8,00.0,32.7,25.9,09.5,0001.2,0019.20,0008.69,0007.84
2022-11-12 19:39:00,,0826.0,5.00,0.00,24.0,22.8,00.0,32.7,25.9,09.4,0001.6,0020.38,0008.69,0007.85
2022-11-12 19:40:00,,0826.0,5.00,0.00,24.0,22.8,00.0,32.7,25.9,09.4,0001.4,0020.48,0008.70,0007.84
2022-11-12 19:41:00,,0826.0,5.01,0.00,24.0,22.9,00.0,32.7,25.9,09.4,0000.7,0020.71,0008.71,0007.84
2022-11-12 19:42:00,,0826.0,5.00,0.00,24.0,22.9,00.0,32.7,25.9,09.4,0000.0,0020.62,0008.74,0007.84
2022-11-12 19:43:00,,0826.0,5.00,0.00,24.0,22.9,00.0,32.7,26.0,09.3,-000.1,0019.47,0008.77,0007.84
2022-11-12 19:44:00,,0825.9,5.00,0.00,24.0,22.9,00.0,32.7,26.0,09.2,-000.4,0019.46,0008.76,0007.84
2022-11-12 19:45:00,,0825.9,5.00,0.00,24.0,22.9,00.0,32.7,26.0,09.2,-000.9,0020.36,0008.74,0007.82
2022-11-12 19:46:00,,0826.0,4.99,0.00,24.0,22.9,00.0,32.8,26.0,09.1,-000.9,0020.37,0008.71,0007.80
2022-11-12 19:47:00,,0825.9,5.00,0.00,24.0,22.9,00.0,32.8,26.0,08.9,-000.3,0020.35,0008.66,0007.78
2022-11-12 19:48:00,,0825.9,4.99,0.00,24.0,22.9,00.0,32.8,26.0,08.8,-000.1,0019.00,0008.54,0007.73
2022-11-12 19:49:00,,0826.0,5.01,0.00,24.1,22.9,00.0,32.8,26.0,08.7,-000.6,0018.39,0008.53,0007.69
2022-11-12 19:50:00,,0826.0,5.01,0.00,24.1,22.9,00.0,32.8,26.0,08.6,-000.7,0017.29,0008.48,0007.65
2022-11-12 19:51:00,,0825.9,4.99,0.00,24.1,22.9,00.0,32.8,26.0,08.7,-000.4,0016.85,0008.40,0007.62
2022-11-12 19:52:00,,0825.9,4.99,0.00,24.1,22.9,00.0,32.8,26.0,08.7,-000.1,0016.40,0008.33,0007.58
2022-11-12 19:53:00,,0825.9,4.99,0.00,24.1,23.0,00.0,32.8,26.1,08.6,0000.1,0015.89,0008.25,0007.52
2022-11-12 19:54:00,,0825.9,5.01,0.00,24.1,23.0,00.0,32.8,26.1,08.4,-000.0,0015.34,0008.15,0007.46
2022-11-12 19:55:00,,0825.8,5.01,0.00,24.1,23.0,00.0,32.8,26.1,08.4,0000.0,0014.68,0008.05,0007.40
2022-11-12 19:56:00,,0825.7,5.00,0.00,24.2,23.0,00.0,32.8,26.1,08.4,0000.8,0013.35,0007.96,0007.35
2022-11-12 19:57:00,,0826.1,4.99,0.00,24.2,23.0,00.0,32.8,26.1,08.3,0001.0,0013.14,0007.88,0007.30
2022-11-12 19:58:00,,0826.0,4.99,0.00,24.2,23.1,00.0,32.9,26.1,08.2,0001.1,0012.60,0007.78,0007.24
2022-11-12 19:59:00,,0825.9,4.99,0.00,24.2,23.1,00.0,32.9,26.2,08.0,0002.0,0012.42,0007.74,0007.19
